Other Surface Observations
Issued by NWS Charleston, SC

Home | Current Version | Previous Version | Text Only | Print | Product List | Glossary On
Versions: 1 2 3 4 5 6 7 8 9 10 11 12 13 14 15 16 17 18 19 20 21 22 23 24 25 26 27 28 29 30 31 32 33 34 35 36 37 38 39 40 41 42 43 44 45 46 47 48 49 50
766
SXUS52 KCHS 271413
OSOCHS

MARINE OBSERVATIONS
NATIONAL WEATHER SERVICE CHARLESTON SC
1000 AM EDT TUE SEP 27 2016

...DOWNTOWN CHARLESTON AND HARBOR...

CITY           SKY/WX    TMP DP  RH WIND       PRES   REMARKS
WATERFRONT PRK   N/A     76  74  93 VRB2      29.93F

...LAKE MOULTRIE...

CITY           SKY/WX    TMP DP  RH WIND       PRES   REMARKS
PINOPOLIS        N/A     75  72  88 CALM      29.90R

...LAKE AND SUPPLEMENTAL COASTAL OBSERVATIONS...

STATION/POSITION TIME  TEMP    WIND        PRES    WAVE   SWELL
                       AIR SEA DIR/SP/G            HT/PER HT/PER/DIR
                 (UTC) (F)     (DEG/KT/KT) (MB)    (FT/S) (FT/S/D)
FORT PULASKI     1348   76 81   10/  5/  6 1014.6R
SAPELO ISLAND    1300   76     360/  8     1014.0
WINYAH BAY       NOT AVBL
LAKE MURRAY      1320   75     100/  4/  5 1014.6S
ACE BASIN NERRS  1245   74      40/  1     1014.0


...C-MAN AND BUOY OBSERVATIONS...

STATION/POSITION TIME  TEMP    WIND        PRES    WAVE   SWELL
                       AIR SEA DIR/SP/G            HT/PER HT/PER/DIR
                 (UTC) (F)     (DEG/KT/KT) (MB)    (FT/S) (FT/S/D)
BUOY 41004       1350   76 82   80/  4/  4 1013.9R   3/ 8   3/100/ 8
BUOY 41008       1350   77 82   20/ 10/ 12 1013.7R   2/ 5   2/120/ 5
FOLLY BEACH CMAN 1400   76      50/  5/  6 1014.5R
CAPERS NS BUOY   1308   76 81  100/  6/ 10 1014.0R
FRIPP NS BUOY    1308   78 81   50/ 10/ 12 1013.9S
5E ST. MARYS GA  1401      82                N/A     2/ 5


STATION/POSITION TIME  TEMP    WIND        PRES    WAVE   SWELL
                       AIR SEA DIR/SP/G            HT/PER HT/PER/DIR
                 (UTC) (F)     (DEG/KT/KT) (MB)    (FT/S) (FT/S/D)
FRYING PAN BUOY  1350   80 82   30/  6/  8 1013.8R   4/ 6   3/130/ 6
BUOY 41025       1350   79 84  180/ 10/ 14 1015.2S   3/ 8   3/ 80/ 8
CAPE LOOKOUT NC  1400   77     140/ 13/ 15 1014.3S
BUOY 41002       1350   79 83  140/ 14/ 19 1013.9F   6/ 6   3/ 40/ 8
BUOY 41010       NOT AVBL
ST AUGUSTINE FL  1400   78 83  340/  8/ 10 1014.9R

$$




USA.gov is the U.S. government's official web portal to all federal, state and local government web resources and services.